Login · Sign Up 
Photo Stats: ARTEMIS KLONOS

ARTEMIS KLONOS currently has 751 photos in the database. The photos have been viewed a total of 1,611,251 times, for an average of 2,145.47 views per photo.

Of those photos:

· 2 have been selected as a People's Choice Awards winner.

Listed below are all photos in the database by ARTEMIS KLONOS. The list is sorted to show the most popular photos first, by default. Click on the column headings to sort the list by other criteria.

Photos from 1 to 200 of 751

Page 1 2 3 4

Photo ID Railroad Locomotive Date Added Views
694573 Deutsche Bahn AG DB AG, ICE4 BR 412 04.19.2019 480 View Photo
694572 Deutsche Bahn AG DB AG, BR 185 04.19.2019 213 View Photo
694058 ISAP Athens Piraeus Electric Railway ISAP, class 8 04.14.2019 537 View Photo
693325 Untitled HCTOR class 182 04.06.2019 878 View Photo
693320 Niederbarnimer Eisenbahn NEB, class VT 632 04.06.2019 526 View Photo
693105 Berliner Verkehrsbetriebe (BVG) DB AG, BR 481 04.04.2019 568 View Photo
693103 Berliner Verkehrsbetriebe (BVG) BVG, class 2200 & 1500 04.04.2019 678 View Photo
692964 Deutsche Bahn AG DB AG, BR 182 04.03.2019 626 View Photo
692882 Deutsche Bahn AG DB AG, BR 474 04.02.2019 728 View Photo
692753 OSE Hellenic Railways MLW, MX627 04.01.2019 932 View Photo
692586 Locon BRLL class ER 20 03.31.2019 356 View Photo
692585 Deutsche Bahn DB, BR 218 03.31.2019 829 View Photo
692505 Deutsche Bahn AG DB AG, BR 101 03.30.2019 578 View Photo
692504 Copenhagen Metro AnsaldoBreda Driverless Metro 03.30.2019 1026 View Photo
692396 Deutsche Bahn AG DB AG, BR 474 03.29.2019 677 View Photo
692177 Deutsche Bahn AG DB AG, BR 472 03.27.2019 628 View Photo
692055 Hamburger Hochbahn HVV class DT5 03.26.2019 737 View Photo
692054 SBB CARGO SIEAG class 193 03.26.2019 816 View Photo
691940 Hamburger Hochbahn HVV, class DT5 03.25.2019 1274 View Photo
691853 MRCE - Mitsui Rail Capital Europe BV MRCE class 193 03.24.2019 438 View Photo
691706 BLS Lotschbergbahn BLS, LOK 2000, Re 465 03.23.2019 714 View Photo
691606 SBB SBB, class 560 03.22.2019 712 View Photo
691605 SBB SBB, ICN RABDe 500 03.22.2019 625 View Photo
691503 SWEG SWEG, class 622 03.21.2019 473 View Photo
691502 Üstra ÜSTRA, TW6000 03.21.2019 843 View Photo
691340 Deutsche Bahn AG DB AG, BR 102 03.20.2019 950 View Photo
691122 ISAP Athens Piraeus Electric Railway ISAP, class 11 03.18.2019 852 View Photo
690946 OSE Hellenic Railways ALCO, RS8-DL532B 03.17.2019 1052 View Photo
690535 Harzer Schmalspurbahnen HSB, BR 99.22 03.13.2019 1518 View Photo
690287 OSE Hellenic Railways OSE, LHB 03.11.2019 1132 View Photo
690065 OSE Hellenic Railways Krauss-Maffei, V221 03.09.2019 1501 View Photo
690004 GVB Amsterdam GVB, class 2000 03.08.2019 1016 View Photo
689886 HSL Logistik BRLL class 185 03.07.2019 533 View Photo
689885 Süd Ost Bayern Bahn (SOB) SOB, TRAVERSO 03.07.2019 917 View Photo
689804 SBB CARGO ELOC, BR 193 03.06.2019 456 View Photo
689713 Metronom ENNO class 1440 03.05.2019 703 View Photo
689602 Deutsche Bahn AG DB AG, BR 187 03.04.2019 468 View Photo
689601 Railpool RPOOL, BR 187 03.04.2019 422 View Photo
689526 Metrans MT, BR 386 03.03.2019 391 View Photo
689403 Deutsche Bahn AG DB AG, BR 145 03.02.2019 487 View Photo
689401 RheinCargo RHC, BR 187 03.02.2019 567 View Photo
688938 MRCE - Mitsui Rail Capital Europe BV MRCE, BR 182 02.26.2019 599 View Photo
688221 Athens Tram ANSALDO, SIRIO 02.20.2019 886 View Photo
688207 BOX EXPRESS BOXX, class 193 02.20.2019 593 View Photo
688160 Deutsche Bahn DB, V200 & EFW BR 215 02.19.2019 1238 View Photo
687981 Railpool RPOOL, BR 151 02.18.2019 729 View Photo
687881 ISAP Athens Piraeus Electric Railway ISAP, class 10 02.17.2019 814 View Photo
687879 Metronom ME, BR 146 02.17.2019 638 View Photo
687518 ISAP Athens Piraeus Electric Railway ISAP, class 11 02.14.2019 737 View Photo
687406 CD - Ceske Drahy CD, class 193 02.13.2019 1086 View Photo
687163 OSE Hellenic Railways OSE, ALCO 02.11.2019 1036 View Photo
686996 OSE Hellenic Railways FIAT, type 116B 02.10.2019 1060 View Photo
686826 Harzer Schmalspurbahnen HSB, BR 99.22 02.08.2019 953 View Photo
686693 Berliner Verkehrsbetriebe (BVG) BVG, class 500 02.07.2019 1013 View Photo
686582 BBL Logistik GmbH BBL, class 203 02.06.2019 728 View Photo
686247 ODEG ODEG, BR 445 02.03.2019 808 View Photo
686043 Pressnitztalbahn(PRESS) PRESS, BR 140 02.01.2019 705 View Photo
685486 RCLG - Rail Cargo Logistics Goldair RCLG, HELLASPRINTER+DE2000 01.27.2019 1086 View Photo
685418 Harzer Schmalspurbahnen HSB, K 57.10 01.26.2019 934 View Photo
685417 Harzer Schmalspurbahnen HSB, BR 99.22 01.26.2019 1168 View Photo
685245 Deutsche Bahn AG DB AG, BR 146 01.25.2019 766 View Photo
685244 Harzer Schmalspurbahnen HSB, K 57.10 01.25.2019 804 View Photo
685166 Braunschweiger Verkehrs, AG BVAG, Solaris Tramino 01.24.2019 747 View Photo
685165 CD - Ceske Drahy CD, class 362 01.24.2019 705 View Photo
685066 AWT-Advanced World Transport AWT BR 186 01.23.2019 778 View Photo
685065 Railpool Rpool BR 155 01.23.2019 757 View Photo
684656 Metronom ME, BR 146 01.20.2019 663 View Photo
682459 DP Praha DPP, class 8300 12.30.2018 742 View Photo
682458 DP Praha DPP, class 9000 12.30.2018 888 View Photo
682202 CD - Ceske Drahy CD, class 380 12.28.2018 713 View Photo
680534 Harzer Schmalspurbahnen HSB, K 57.10 12.13.2018 971 View Photo
679635 Pressnitztalbahn(PRESS) PRESS, BR 140 12.04.2018 737 View Photo
679236 Harzer Schmalspurbahnen HSB, BR 199 11.30.2018 911 View Photo
679141 Untitled HLG, BR 185 11.29.2018 693 View Photo
679033 Harzer Schmalspurbahnen HSB, BR 99.22 11.28.2018 1020 View Photo
678775 OSE Hellenic Railways MLW, MX627 11.26.2018 1025 View Photo
678773 OSE Hellenic Railways STADLER, DBmh 2Z+4A/12 11.26.2018 712 View Photo
678635 OSE Hellenic Railways SIEMENS, Electric Desiro 11.25.2018 732 View Photo
678634 OSE Hellenic Railways ELECTROPUTERE DEL4000HP 11.25.2018 930 View Photo
678223 BBL Logistik GmbH BBL, class 185 11.21.2018 583 View Photo
677166 Athens Tram ANSALDO, SIRIO 11.12.2018 838 View Photo
677085 BEHALA / Berliner Hafen und Lagerhausgesellschaft mbH BHL, BR 277 / G1700BB 11.11.2018 818 View Photo
677084 ODEG ODEG, BR 445 11.11.2018 1103 View Photo
676027 Deutsche Bahn AG DB AG, ICET BR 411 11.02.2018 717 View Photo
675765 Berliner Verkehrsbetriebe (BVG) BVG, class 500 10.31.2018 709 View Photo
675701 Berliner Verkehrsbetriebe (BVG) BVG, class 9000 10.30.2018 709 View Photo
673810 Untitled EBS, BR 140 10.13.2018 727 View Photo
673586 Deutsche Bahn AG DB AG, BR 481 10.11.2018 722 View Photo
673232 Untitled SRI, br 145 10.08.2018 728 View Photo
672481 Raildox RDX, BR 264 10.02.2018 708 View Photo
672480 Berliner Verkehrsbetriebe (BVG) BVG, class 2600 10.02.2018 896 View Photo
672235 PKP Intercity PKPIC, class 370 09.30.2018 918 View Photo
672234 Untitled NEWAG - DRAGON 2 09.30.2018 1069 View Photo
672204 Deutsche Bahn AG DB AG, BR 143 09.29.2018 736 View Photo
672017 Berliner Verkehrsbetriebe (BVG) BVG, class 9000 09.27.2018 765 View Photo
672016 Austria Federal Railways (ÖBB) OBB, BR 4758 09.27.2018 718 View Photo
671893 CD - Ceske Drahy CD, class 193 09.26.2018 751 View Photo
669572 Deutsche Bahn AG DB AG, BR 261 09.05.2018 710 View Photo
669571 Heavy Haul Power HHPI, class 29000 09.05.2018 711 View Photo
669492 MWB Mittelweserbahn MWB, class 182 09.04.2018 672 View Photo
669490 Deutsche Bahn AG DB AG, BR 185 09.04.2018 720 View Photo
669260 Hector Rail HR, class 182 09.02.2018 702 View Photo
669016 RCLG - Rail Cargo Logistics Goldair RCLG, DE2000 08.31.2018 734 View Photo
669015 RCLG - Rail Cargo Logistics Goldair RCLG, DE2000 08.31.2018 853 View Photo
667104 RCLG - Rail Cargo Logistics Goldair RCLG, HELLASPRINTER+DE2000 08.11.2018 941 View Photo
667025 RCLG - Rail Cargo Logistics Goldair RCLG, HELLASPRINTER+DE2000 08.10.2018 1065 View Photo
667022 RCLG - Rail Cargo Logistics Goldair RCLG, HELLASPRINTER 08.10.2018 729 View Photo
665974 RCLG - Rail Cargo Logistics Goldair RCLG, DE2000 07.30.2018 844 View Photo
663675 ENERGON ENERGON, class 193 07.09.2018 738 View Photo
663511 Braunschweiger Verkehrs, AG BVAG, class NGT8D 07.08.2018 720 View Photo
662284 Braunschweiger Verkehrs, AG BVAG, Solaris Tramino 06.25.2018 846 View Photo
661142 Braunschweiger Verkehrs, AG BVAG, Duewag / typ Mannheim 06.14.2018 730 View Photo
660829 Deutsche Bahn AG DB AG, BR 187 06.11.2018 739 View Photo
660746 BOX EXPRESS DISPO, class 193 06.10.2018 730 View Photo
660745 BSAG - Bremer Straßenbahn AG BSAG, class GT8N 06.10.2018 806 View Photo
660552 Üstra ÜSTRA, TW2500 06.08.2018 740 View Photo
660333 Harzer Schmalspurbahnen HSB, K 57.10 06.06.2018 797 View Photo
660013 Deutsche Bahn AG DB AG, BR DBpbzfa 763.5 06.03.2018 733 View Photo
660011 Wiener Lokalbahnen Cargo (WLC) ELL, class 193 06.03.2018 718 View Photo
659226 Harzer Schmalspurbahnen HSB, K 57.10 05.27.2018 998 View Photo
653293 Metronom ME, BR 146 03.29.2018 752 View Photo
653289 Deutsche Bahn AG DB AG, BR 143 03.29.2018 745 View Photo
652601 Harzer Schmalspurbahnen HSB, K 57.10 03.23.2018 966 View Photo
652600 Harzer Schmalspurbahnen HSB, K 57.10 03.23.2018 1136 View Photo
652342 Harzer Schmalspurbahnen HSB, K 57.10 03.21.2018 965 View Photo
652203 Harzer Schmalspurbahnen HSB, K 57.10 03.20.2018 888 View Photo
652081 Harzer Schmalspurbahnen HSB, K 57.10 03.19.2018 1284 View Photo
649334 Pressnitztalbahn(PRESS) PRESS, BR 140 02.23.2018 710 View Photo
649252 DB AG DB AG, ICE3 BR 403 02.22.2018 743 View Photo
648727 Hamburger Hochbahn HHA, class DT5 02.18.2018 806 View Photo
648508 Hector Rail HR, class 182 02.16.2018 755 View Photo
648503 HSL Logistik HSL, BR 185 02.16.2018 721 View Photo
648071 Deutsche Bahn AG DB AG, BR 185 02.12.2018 721 View Photo
648070 Wiebe WIEBE locos N.10 & 11 02.12.2018 814 View Photo
647868 Üstra ÜSTRA, TW2500 02.11.2018 1009 View Photo
647866 DB AG DB AG, BR 152 02.11.2018 708 View Photo
646856 Harzer Schmalspurbahnen HSB, K 57.10 02.02.2018 1068 View Photo
646854 PKP CARGO PKPC, class 370 02.02.2018 747 View Photo
644522 SJ - Swedish Railways SJ, class Rc2 01.14.2018 981 View Photo
644275 CLR-Cargo Logistik Rail Service CLR, V170 01.12.2018 1043 View Photo
639388 SJ - Swedish Railways SJ, class Rc5 11.28.2017 1167 View Photo
639090 Deutsche Bahn AG DB AG, BR 182 11.26.2017 879 View Photo
638817 Deutsche Bahn AG DB AG, BR 112 11.23.2017 1268 View Photo
638714 OSE Hellenic Railways ALCO, FPD7 DL500C & RSD34 11.22.2017 1349 View Photo
638553 HŽ - Hrvatske željeznice HZPP, class 6112 11.21.2017 860 View Photo
638552 Üstra ÜSTRA, TW2000 11.21.2017 1049 View Photo
638365 Deutsche Bahn AG DB AG, BR 140 11.19.2017 960 View Photo
638364 Deutsche Bahn AG DB AG, BR 424 11.19.2017 1127 View Photo
637523 ArcelorMittal AMEH, class 145 11.10.2017 958 View Photo
636292 Deutsche Bahn AG DB AG, ICE1 BR 401 10.30.2017 927 View Photo
636290 Deutsche Bahn AG DB AG, BR 101 10.30.2017 886 View Photo
636152 Deutsche Bahn AG DB AG, ICE2 BR 402 10.29.2017 768 View Photo
636149 Deutsche Bahn AG DB AG, BR 442 10.29.2017 1014 View Photo
635088 Üstra ÜSTRA, TW3000 10.21.2017 1081 View Photo
635087 Deutsche Bahn AG DB AG, BR 185 10.21.2017 884 View Photo
635047 Cantus CAN, FLIRT class 427 10.20.2017 897 View Photo
633851 LVB - Leipziger Verkehrsbetriebe GmbH LVB; TW 2100 10.11.2017 1001 View Photo
633461 Deutsche Bahn AG DB, BR 1442 10.08.2017 939 View Photo
633199 ELV - Eisenbahn Logistik Vienenburg ELV, BR 140 10.06.2017 978 View Photo
573379 Deutsche Bahn AG DB AG, BR 442 04.17.2016 1433 View Photo
573271 Westfalenbahn WFB, class 400 04.16.2016 1501 View Photo
573269 Deutsche Bahn AG DB AG, BR 146 04.16.2016 1191 View Photo
573138 OSE Hellenic Railways ADTRANZ, DE2000 04.15.2016 1753 View Photo
573088 Deutsche Bahn AG DB AG, BR 146.5 04.14.2016 1738 View Photo
572868 Arriva The Netherlands AN, GTW 300 04.12.2016 1347 View Photo
572867 NS NS, class VIRM-4 04.12.2016 1457 View Photo
570244 Westfalenbahn WFB, class 400 03.20.2016 1385 View Photo
570237 Deutsche Bahn AG DB AG, BR 146.5 03.20.2016 1465 View Photo
570027 Nordwestbahn NWB, VT 648 03.19.2016 1381 View Photo
570026 Deutsche Bahn AG DB AG, BR 146 03.19.2016 1183 View Photo
566530 Deutsche Bahn AG DB AG, BR 146.5 02.19.2016 1528 View Photo
566529 NXG National Express Rail NXG, class 9442 02.19.2016 1387 View Photo
564494 Austria Federal Railways (ÖBB) OBB, BR 4020 02.05.2016 1721 View Photo
564379 Deutsche Bahn AG DB AG, DBpdzfa668 02.04.2016 1427 View Photo
564378 Deutsche Bahn AG DB AG, BR 185 02.04.2016 1155 View Photo
564332 Deutsche Bahn AG DB AG, BR 146 02.03.2016 1115 View Photo
564043 Deutsche Bahn AG DB AG, BR 140 02.01.2016 1339 View Photo
564042 Deutsche Bahn AG DB AG, BR 185 02.01.2016 1157 View Photo
563893 Deutsche Bahn AG DB AG, BR 146.5 01.31.2016 1707 View Photo
563892 Deutsche Bahn AG DB AG, BR 120 01.31.2016 1171 View Photo
563772 Deutsche Bahn AG DB AG, BR 140 01.30.2016 1182 View Photo
563770 Deutsche Bahn AG DB AG, BR 101 01.30.2016 1138 View Photo
563652 Deutsche Bahn AG DB AG, BR 146.5 01.29.2016 1834 View Photo
563650 Westfalenbahn WFB, class 400 01.29.2016 1226 View Photo
563564 Deutsche Bahn AG DB AG, BR 101 01.28.2016 1210 View Photo
563563 Deutsche Bahn AG DB AG, BR 140 01.28.2016 1153 View Photo
563465 Westfalenbahn WFB, class 400 01.27.2016 1465 View Photo
563450 NXG National Express Rail NXG, class 9442 01.27.2016 1383 View Photo
550478 Railion-Logistics (DB) DB, BR 185 10.16.2015 3628 View Photo
548967 OSE Hellenic Railways ELECTROPUTERE DEL4000HP 10.03.2015 2020 View Photo
548806 OSE Hellenic Railways SIEMENS, Hellasprinter 10.02.2015 1838 View Photo
548572 OSE Hellenic Railways GANZ MAVAG, DHM 7 09.30.2015 2256 View Photo
548571 Austria Federal Railways (ÖBB) OBB, BR 1044 09.30.2015 1411 View Photo
548121 Austria Federal Railways (ÖBB) OBB, BR 4020 09.27.2015 1508 View Photo
548058 Austria Federal Railways (ÖBB) OBB, BR 1044 09.26.2015 2008 View Photo
547885 BKV (Budapest Transport Company) BKV, class 3300 & 3200 09.25.2015 1771 View Photo
547884 Egyptian Railways (ENR) ENR, class 4300 09.25.2015 3041 View Photo
543520 CM Chamonix - Montenvers CM, Bhe 4/4 08.23.2015 1416 View Photo
543450 Montpellier TAM TAM, Citadis 08.22.2015 1601 View Photo
543196 Deutsche Bahn DB, BR 111 08.20.2015 1804 View Photo

 

Copyright © 2002-2018.